| time (UTC) | temp F | wind direction | speed MPH | gust MPH | rain 1hr in | rain 24hr in | rain mn in | humidity % | barometer mb |
| 20260510054703 | 84 | 295 | 0.0 | 0.0 | 0.01 | 0.02 | 0.00 | 73 | 1006.6 |
| 20260510053704 | 84 | 295 | 0.0 | 0.0 | 0.01 | 0.02 | 0.00 | 73 | 1006.6 |
| 20260510053204 | 84 | 295 | 0.0 | 0.0 | 0.01 | 0.02 | 0.00 | 73 | 1006.6 |
| 20260510052204 | 84 | 295 | 0.0 | 0.0 | 0.01 | 0.02 | 0.00 | 73 | 1006.6 |
| 20260510051203 | 84 | 295 | 0.0 | 0.0 | 0.01 | 0.02 | 0.00 | 73 | 1006.6 |
| 20260510050704 | 84 | 295 | 0.0 | 0.0 | 0.01 | 0.02 | 0.00 | 73 | 1006.6 |
| 20260510045704 | 84 | 295 | 0.0 | 0.0 | 0.00 | 0.12 | 0.01 | 73 | 1006.6 |
| 20260510045204 | 84 | 295 | 0.0 | 0.0 | 0.00 | 0.12 | 0.01 | 73 | 1006.6 |
| 20260510044704 | 84 | 295 | 0.0 | 0.0 | 0.00 | 0.12 | 0.01 | 73 | 1006.6 |
| 20260510044205 | 84 | 295 | 0.0 | 0.0 | 0.00 | 0.12 | 0.01 | 73 | 1006.6 |
| 20260510043705 | 84 | 295 | 0.0 | 0.0 | 0.00 | 0.12 | 0.01 | 73 | 1006.6 |
| 20260510043204 | 84 | 295 | 0.0 | 0.0 | 0.00 | 0.12 | 0.01 | 73 | 1006.6 |
| 20260510042204 | 84 | 295 | 0.0 | 0.0 | 0.00 | 0.12 | 0.01 | 73 | 1006.6 |
| 20260510041704 | 84 | 295 | 0.0 | 0.0 | 0.00 | 0.12 | 0.01 | 73 | 1006.6 |
| 20260510041204 | 84 | 295 | 0.0 | 0.0 | 0.00 | 0.12 | 0.01 | 73 | 1006.6 |
| 20260510040704 | 84 | 295 | 0.0 | 0.0 | 0.00 | 0.12 | 0.01 | 73 | 1006.6 |
| 20260510040204 | 84 | 295 | 0.0 | 0.0 | 0.00 | 0.12 | 0.01 | 73 | 1006.6 |
| 20260510034704 | 84 | 295 | 0.0 | 0.0 | 0.00 | 0.12 | 0.01 | 73 | 1006.6 |
| 20260510034204 | 84 | 295 | 0.0 | 0.0 | 0.00 | 0.12 | 0.01 | 73 | 1006.6 |
| 20260510033204 | 84 | 295 | 0.0 | 0.0 | 0.00 | 0.12 | 0.01 | 73 | 1006.6 |
| 20260510032704 | 84 | 295 | 0.0 | 0.0 | 0.00 | 0.12 | 0.01 | 73 | 1006.6 |
| 20260510032204 | 84 | 295 | 0.0 | 0.0 | 0.00 | 0.12 | 0.01 | 73 | 1006.6 |
| 20260510031204 | 84 | 295 | 0.0 | 0.0 | 0.00 | 0.12 | 0.01 | 73 | 1006.6 |
| 20260510030704 | 84 | 295 | 0.0 | 0.0 | 0.00 | 0.12 | 0.01 | 73 | 1006.6 |
| 20260510030204 | 84 | 295 | 0.0 | 0.0 | 0.00 | 0.12 | 0.01 | 73 | 1006.6 |
| 20260510025704 | 84 | 295 | 0.0 | 0.0 | 0.00 | 0.12 | 0.01 | 73 | 1006.6 |
| 20260510025204 | 84 | 295 | 0.0 | 0.0 | 0.00 | 0.12 | 0.01 | 73 | 1006.6 |
| 20260510024704 | 84 | 295 | 0.0 | 0.0 | 0.00 | 0.12 | 0.01 | 73 | 1006.6 |
| 20260510023704 | 84 | 295 | 0.0 | 0.0 | 0.00 | 0.12 | 0.01 | 73 | 1006.6 |
| 20260510023204 | 84 | 295 | 0.0 | 0.0 | 0.00 | 0.12 | 0.01 | 73 | 1006.6 |
| 20260510022704 | 84 | 295 | 0.0 | 0.0 | 0.00 | 0.12 | 0.01 | 73 | 1006.6 |
| 20260510022204 | 84 | 295 | 0.0 | 0.0 | 0.00 | 0.12 | 0.01 | 73 | 1006.6 |
| 20260510021704 | 84 | 295 | 0.0 | 0.0 | 0.00 | 0.12 | 0.01 | 73 | 1006.6 |
| 20260510021204 | 84 | 295 | 0.0 | 0.0 | 0.00 | 0.12 | 0.01 | 73 | 1006.6 |
| 20260510020704 | 84 | 295 | 0.0 | 0.0 | 0.00 | 0.12 | 0.01 | 73 | 1006.6 |
| 20260510020204 | 84 | 295 | 0.0 | 0.0 | 0.00 | 0.12 | 0.01 | 73 | 1006.6 |
| 20260510015204 | 84 | 295 | 0.0 | 0.0 | 0.00 | 0.12 | 0.01 | 73 | 1006.6 |
| 20260510014704 | 84 | 295 | 0.0 | 0.0 | 0.00 | 0.12 | 0.01 | 73 | 1006.6 |
| 20260510014204 | 84 | 295 | 0.0 | 0.0 | 0.00 | 0.12 | 0.01 | 73 | 1006.6 |
| 20260510013704 | 84 | 295 | 0.0 | 0.0 | 0.00 | 0.12 | 0.01 | 73 | 1006.6 |
| 20260510013205 | 84 | 295 | 0.0 | 0.0 | 0.00 | 0.12 | 0.01 | 73 | 1006.6 |
| 20260510012704 | 84 | 295 | 0.0 | 0.0 | 0.00 | 0.12 | 0.01 | 73 | 1006.6 |
| 20260510011704 | 84 | 295 | 0.0 | 0.0 | 0.00 | 0.12 | 0.01 | 73 | 1006.6 |
| 20260510011204 | 84 | 295 | 0.0 | 0.0 | 0.00 | 0.12 | 0.01 | 73 | 1006.6 |
| 20260510010704 | 84 | 295 | 0.0 | 0.0 | 0.01 | 0.12 | 0.01 | 73 | 1006.6 |
| 20260510010204 | 84 | 295 | 0.0 | 0.0 | 0.01 | 0.12 | 0.01 | 73 | 1006.6 |
| 20260510005704 | 84 | 295 | 0.0 | 0.0 | 0.01 | 0.12 | 0.01 | 73 | 1006.6 |
| 20260510004704 | 84 | 295 | 0.0 | 0.0 | 0.01 | 0.12 | 0.01 | 73 | 1006.6 |
| 20260510004204 | 84 | 295 | 0.0 | 0.0 | 0.01 | 0.12 | 0.01 | 73 | 1006.6 |
| 20260510003704 | 84 | 295 | 0.0 | 0.0 | 0.01 | 0.12 | 0.01 | 73 | 1006.6 |
| 20260510003204 | 84 | 295 | 0.0 | 0.0 | 0.01 | 0.12 | 0.01 | 73 | 1006.6 |
| 20260510002704 | 84 | 295 | 0.0 | 0.0 | 0.01 | 0.12 | 0.01 | 73 | 1006.6 |
| 20260510002204 | 84 | 295 | 0.0 | 0.0 | 0.01 | 0.12 | 0.01 | 73 | 1006.6 |
| 20260510001704 | 84 | 294 | 0.0 | 1.0 | 0.01 | 0.12 | 0.01 | 72 | 1006.5 |
| 20260510001204 | 85 | 288 | 0.0 | 1.0 | 0.01 | 0.12 | 0.01 | 72 | 1006.1 |
| 20260510000704 | 86 | 292 | 0.0 | 1.0 | 0.00 | 0.12 | 0.00 | 71 | 1006.3 |
| 20260510000204 | 86 | 286 | 0.0 | 2.0 | 0.00 | 0.12 | 0.00 | 70 | 1006.5 |
| 20260509235704 | 87 | 278 | 0.0 | 2.0 | 0.00 | 0.12 | 0.00 | 66 | 1006.3 |
| 20260509235204 | 88 | 30 | 0.0 | 2.0 | 0.00 | 0.12 | 0.00 | 62 | 1006.1 |
| 20260509234704 | 88 | 356 | 0.0 | 2.0 | 0.00 | 0.12 | 0.00 | 59 | 1006.0 |
| 20260509233704 | 88 | 286 | 0.0 | 1.0 | 0.00 | 0.12 | 0.00 | 60 | 1005.8 |
| 20260509233205 | 88 | 302 | 0.0 | 1.0 | 0.00 | 0.12 | 0.00 | 59 | 1006.0 |
| 20260509232704 | 89 | 284 | 0.0 | 2.0 | 0.00 | 0.12 | 0.00 | 58 | 1006.0 |
| 20260509232204 | 89 | 350 | 0.0 | 2.0 | 0.00 | 0.12 | 0.00 | 57 | 1006.0 |
| 20260509231704 | 89 | 294 | 0.0 | 2.0 | 0.00 | 0.12 | 0.00 | 56 | 1006.0 |
| 20260509231204 | 89 | 314 | 0.0 | 1.0 | 0.00 | 0.12 | 0.00 | 57 | 1005.9 |
| 20260509230704 | 89 | 323 | 0.0 | 1.0 | 0.00 | 0.12 | 0.00 | 58 | 1005.9 |
| 20260509230204 | 89 | 278 | 0.0 | 1.0 | 0.00 | 0.12 | 0.00 | 58 | 1005.8 |
| 20260509225704 | 89 | 280 | 0.0 | 1.0 | 0.00 | 0.12 | 0.00 | 58 | 1005.8 |
| 20260509225204 | 90 | 279 | 1.0 | 1.0 | 0.00 | 0.12 | 0.00 | 58 | 1005.7 |
| 20260509224704 | 90 | 285 | 1.0 | 2.0 | 0.00 | 0.12 | 0.00 | 57 | 1005.7 |
| 20260509223704 | 91 | 343 | 1.0 | 2.0 | 0.00 | 0.12 | 0.00 | 59 | 1005.6 |
| 20260509223204 | 91 | 117 | 1.0 | 2.0 | 0.00 | 0.12 | 0.00 | 56 | 1005.6 |
| 20260509222704 | 91 | 31 | 0.0 | 1.0 | 0.00 | 0.12 | 0.00 | 57 | 1005.5 |
| 20260509222205 | 90 | 288 | 1.0 | 2.0 | 0.00 | 0.12 | 0.00 | 60 | 1005.5 |
| 20260509221204 | 90 | 301 | 0.0 | 2.0 | 0.00 | 0.12 | 0.00 | 58 | 1005.5 |
| 20260509220704 | 90 | 268 | 1.0 | 2.0 | 0.00 | 0.12 | 0.00 | 57 | 1005.6 |
| 20260509220204 | 90 | 287 | 0.0 | 2.0 | 0.00 | 0.12 | 0.00 | 58 | 1005.5 |
| 20260509215204 | 91 | 252 | 1.0 | 2.0 | 0.00 | 0.12 | 0.00 | 56 | 1005.5 |
| 20260509214703 | 91 | 257 | 0.0 | 1.0 | 0.00 | 0.12 | 0.00 | 58 | 1005.6 |
| 20260509214203 | 92 | 291 | 0.0 | 2.0 | 0.00 | 0.12 | 0.00 | 55 | 1005.5 |
| 20260509211704 | 93 | 249 | 1.0 | 2.0 | 0.00 | 0.12 | 0.00 | 56 | 1005.5 |
| 20260509211204 | 94 | 309 | 0.0 | 1.0 | 0.00 | 0.12 | 0.00 | 57 | 1005.6 |
| 20260509210704 | 94 | 290 | 0.0 | 1.0 | 0.00 | 0.12 | 0.00 | 56 | 1005.6 |
| 20260509210204 | 94 | 356 | 0.0 | 2.0 | 0.00 | 0.12 | 0.00 | 55 | 1005.7 |
| 20260509205705 | 94 | 286 | 1.0 | 2.0 | 0.00 | 0.12 | 0.00 | 57 | 1005.8 |
| 20260509205204 | 94 | 296 | 0.0 | 1.0 | 0.00 | 0.12 | 0.00 | 56 | 1005.9 |
| 20260509204704 | 94 | 42 | 1.0 | 2.0 | 0.00 | 0.12 | 0.00 | 55 | 1005.9 |
| 20260509204204 | 93 | 304 | 0.0 | 2.0 | 0.00 | 0.12 | 0.00 | 58 | 1005.9 |
| 20260509203704 | 93 | 257 | 1.0 | 2.0 | 0.00 | 0.12 | 0.00 | 57 | 1006.0 |
| 20260509202704 | 94 | 291 | 1.0 | 3.0 | 0.00 | 0.12 | 0.00 | 56 | 1006.1 |
| 20260509202204 | 93 | 3 | 0.0 | 3.0 | 0.00 | 0.12 | 0.00 | 58 | 1006.1 |
| 20260509201704 | 93 | 312 | 0.0 | 2.0 | 0.00 | 0.12 | 0.00 | 58 | 1006.1 |
| 20260509201204 | 93 | 268 | 1.0 | 2.0 | 0.00 | 0.12 | 0.00 | 57 | 1006.2 |
| 20260509200704 | 93 | 312 | 1.0 | 2.0 | 0.00 | 0.12 | 0.00 | 58 | 1006.2 |
| 20260509195703 | 93 | 312 | 1.0 | 2.0 | 0.00 | 0.12 | 0.00 | 57 | 1006.3 |
| 20260509195203 | 93 | 35 | 0.0 | 2.0 | 0.00 | 0.12 | 0.00 | 58 | 1006.3 |
| 20260509194705 | 93 | 333 | 1.0 | 2.0 | 0.00 | 0.12 | 0.00 | 57 | 1006.4 |
| 20260509194204 | 92 | 260 | 1.0 | 2.0 | 0.00 | 0.12 | 0.00 | 55 | 1006.5 |
| 20260509193705 | 92 | 271 | 1.0 | 2.0 | 0.00 | 0.12 | 0.00 | 55 | 1006.5 |
| 20260509193204 | 92 | 303 | 1.0 | 2.0 | 0.00 | 0.12 | 0.00 | 54 | 1006.5 |
| 20260509192705 | 92 | 189 | 0.0 | 2.0 | 0.00 | 0.12 | 0.00 | 57 | 1006.5 |
| 20260509192204 | 92 | 285 | 0.0 | 2.0 | 0.00 | 0.12 | 0.00 | 58 | 1006.7 |
| 20260509191704 | 91 | 296 | 0.0 | 2.0 | 0.00 | 0.12 | 0.00 | 61 | 1006.7 |
| 20260509191204 | 91 | 316 | 1.0 | 2.0 | 0.00 | 0.12 | 0.00 | 60 | 1006.8 |
| 20260509190704 | 91 | 327 | 0.0 | 2.0 | 0.00 | 0.12 | 0.00 | 60 | 1006.6 |
| 20260509190204 | 91 | 297 | 1.0 | 3.0 | 0.00 | 0.12 | 0.00 | 57 | 1006.7 |
| 20260509184704 | 90 | 281 | 0.0 | 2.0 | 0.00 | 0.12 | 0.00 | 62 | 1007.0 |
| 20260509183703 | 89 | 266 | 1.0 | 2.0 | 0.00 | 0.12 | 0.00 | 65 | 1007.1 |
| 20260509183204 | 89 | 333 | 1.0 | 2.0 | 0.00 | 0.12 | 0.00 | 65 | 1007.1 |
| 20260509182703 | 89 | 249 | 1.0 | 2.0 | 0.00 | 0.12 | 0.00 | 62 | 1007.2 |
| 20260509182204 | 89 | 222 | 1.0 | 2.0 | 0.00 | 0.13 | 0.00 | 66 | 1007.3 |
| 20260509181705 | 88 | 207 | 1.0 | 3.0 | 0.00 | 0.13 | 0.00 | 67 | 1007.5 |
| 20260509181204 | 88 | 25 | 1.0 | 3.0 | 0.00 | 0.13 | 0.00 | 66 | 1007.7 |
| 20260509180204 | 88 | 296 | 1.0 | 3.0 | 0.00 | 0.15 | 0.00 | 70 | 1007.9 |
| 20260509175704 | 87 | 239 | 1.0 | 2.0 | 0.00 | 0.15 | 0.00 | 72 | 1008.0 |
| 20260509175204 | 87 | 268 | 1.0 | 3.0 | 0.00 | 0.15 | 0.00 | 72 | 1008.1 |
| 20260509174704 | 87 | 328 | 1.0 | 3.0 | 0.00 | 0.15 | 0.00 | 74 | 1008.0 |
| 20260509174204 | 87 | 273 | 1.0 | 1.0 | 0.00 | 0.15 | 0.00 | 74 | 1008.0 |
| 20260509173704 | 87 | 359 | 0.0 | 1.0 | 0.00 | 0.15 | 0.00 | 75 | 1008.3 |
| 20260509172704 | 85 | 297 | 1.0 | 2.0 | 0.00 | 0.15 | 0.00 | 77 | 1008.4 |
| 20260509171704 | 84 | 341 | 0.0 | 1.0 | 0.00 | 0.15 | 0.00 | 79 | 1008.7 |
| 20260509171204 | 84 | 294 | 1.0 | 1.0 | 0.00 | 0.15 | 0.00 | 81 | 1008.7 |
| 20260509170204 | 84 | 304 | 0.0 | 1.0 | 0.00 | 0.15 | 0.00 | 81 | 1008.7 |
| 20260509165704 | 84 | 297 | 0.0 | 1.0 | 0.00 | 0.15 | 0.00 | 80 | 1008.7 |
| 20260509165204 | 84 | 305 | 0.0 | 1.0 | 0.00 | 0.15 | 0.00 | 79 | 1008.8 |
| 20260509164704 | 84 | 292 | 0.0 | 1.0 | 0.00 | 0.15 | 0.00 | 81 | 1008.8 |
| 20260509164204 | 83 | 290 | 1.0 | 1.0 | 0.00 | 0.15 | 0.00 | 80 | 1008.7 |
| 20260509163704 | 83 | 334 | 0.0 | 1.0 | 0.00 | 0.16 | 0.00 | 81 | 1008.7 |
| 20260509163205 | 83 | 316 | 0.0 | 1.0 | 0.00 | 0.16 | 0.00 | 80 | 1008.6 |
| 20260509162703 | 83 | 270 | 0.0 | 1.0 | 0.00 | 0.16 | 0.00 | 81 | 1008.6 |
| 20260509161704 | 82 | 320 | 0.0 | 0.0 | 0.00 | 0.17 | 0.00 | 83 | 1008.6 |
| 20260509161204 | 82 | 287 | 0.0 | 1.0 | 0.00 | 0.17 | 0.00 | 83 | 1008.6 |
| 20260509160204 | 82 | 302 | 0.0 | 1.0 | 0.00 | 0.17 | 0.00 | 85 | 1008.7 |
| 20260509155704 | 82 | 308 | 0.0 | 1.0 | 0.00 | 0.17 | 0.00 | 84 | 1008.6 |
| 20260509155204 | 81 | 317 | 0.0 | 1.0 | 0.00 | 0.17 | 0.00 | 84 | 1008.6 |
| 20260509154703 | 81 | 264 | 0.0 | 1.0 | 0.00 | 0.17 | 0.00 | 85 | 1008.4 |
| 20260509154204 | 81 | 140 | 0.0 | 0.0 | 0.00 | 0.17 | 0.00 | 85 | 1008.5 |
| 20260509153704 | 81 | 140 | 0.0 | 0.0 | 0.00 | 0.18 | 0.00 | 86 | 1008.6 |
| 20260509153204 | 80 | 140 | 0.0 | 0.0 | 0.00 | 0.19 | 0.00 | 87 | 1008.6 |
| 20260509152705 | 80 | 140 | 0.0 | 0.0 | 0.00 | 0.19 | 0.00 | 88 | 1008.5 |
| 20260509152204 | 80 | 144 | 0.0 | 1.0 | 0.00 | 0.20 | 0.00 | 88 | 1008.5 |
| 20260509151704 | 80 | 211 | 0.0 | 0.0 | 0.00 | 0.20 | 0.00 | 89 | 1008.5 |
| 20260509151203 | 79 | 211 | 0.0 | 0.0 | 0.00 | 0.21 | 0.00 | 90 | 1008.5 |
| 20260509150704 | 79 | 211 | 0.0 | 0.0 | 0.00 | 0.22 | 0.00 | 89 | 1008.5 |
| 20260509150203 | 79 | 191 | 0.0 | 0.0 | 0.00 | 0.22 | 0.00 | 90 | 1008.6 |
| 20260509145204 | 78 | 145 | 0.0 | 2.0 | 0.00 | 0.22 | 0.00 | 92 | 1008.5 |
| 20260509144704 | 78 | 162 | 0.0 | 2.0 | 0.00 | 0.22 | 0.00 | 92 | 1008.3 |
| 20260509144204 | 78 | 161 | 0.0 | 1.0 | 0.00 | 0.22 | 0.00 | 92 | 1008.2 |
| 20260509143705 | 78 | 252 | 0.0 | 1.0 | 0.00 | 0.22 | 0.00 | 92 | 1008.0 |
| 20260509143204 | 78 | 48 | 0.0 | 0.0 | 0.00 | 0.23 | 0.00 | 93 | 1008.1 |
| 20260509142705 | 78 | 79 | 0.0 | 1.0 | 0.00 | 0.24 | 0.00 | 93 | 1008.1 |
| 20260509142203 | 78 | 228 | 0.0 | 0.0 | 0.00 | 0.24 | 0.00 | 93 | 1008.1 |
| 20260509141704 | 77 | 228 | 0.0 | 1.0 | 0.00 | 0.24 | 0.00 | 93 | 1007.8 |
| 20260509141204 | 78 | 189 | 0.0 | 1.0 | 0.00 | 0.24 | 0.00 | 93 | 1007.8 |
| 20260509140706 | 77 | 177 | 0.0 | 0.0 | 0.00 | 0.24 | 0.00 | 94 | 1007.9 |
| 20260509140204 | 77 | 177 | 0.0 | 1.0 | 0.00 | 0.24 | 0.00 | 94 | 1007.9 |
| 20260509135704 | 77 | 117 | 0.0 | 1.0 | 0.00 | 0.24 | 0.00 | 94 | 1007.8 |
| 20260509134704 | 77 | 144 | 0.0 | 0.0 | 0.00 | 0.24 | 0.00 | 95 | 1008.0 |
| 20260509133705 | 77 | 127 | 0.0 | 1.0 | 0.00 | 0.24 | 0.00 | 97 | 1008.5 |
| 20260509133204 | 76 | 121 | 0.0 | 1.0 | 0.00 | 0.24 | 0.00 | 97 | 1008.7 |
| 20260509132204 | 76 | 50 | 0.0 | 1.0 | 0.00 | 0.24 | 0.00 | 98 | 1008.9 |
| 20260509131704 | 76 | 101 | 0.0 | 1.0 | 0.00 | 0.24 | 0.00 | 98 | 1008.8 |
| 20260509130706 | 76 | 103 | 0.0 | 1.0 | 0.00 | 0.24 | 0.00 | 99 | 1008.8 |
| 20260509130204 | 76 | 137 | 0.0 | 1.0 | 0.00 | 0.24 | 0.00 | 99 | 1008.7 |
| 20260509125704 | 75 | 114 | 0.0 | 0.0 | 0.00 | 0.24 | 0.00 | 99 | 1008.6 |
| 20260509124704 | 75 | 55 | 0.0 | 1.0 | 0.00 | 0.24 | 0.00 | 99 | 1008.5 |
| 20260509124204 | 75 | 156 | 0.0 | 1.0 | 0.00 | 0.24 | 0.00 | 99 | 1008.4 |
| 20260509123703 | 75 | 80 | 0.0 | 0.0 | 0.00 | 0.24 | 0.00 | 99 | 1008.5 |
| 20260509123204 | 74 | 137 | 0.0 | 1.0 | 0.00 | 0.24 | 0.00 | 99 | 1008.6 |
| 20260509122704 | 74 | 315 | 0.0 | 0.0 | 0.00 | 0.24 | 0.00 | 99 | 1008.4 |
| 20260509122204 | 74 | 315 | 0.0 | 0.0 | 0.00 | 0.24 | 0.00 | 99 | 1008.5 |
| 20260509121704 | 74 | 315 | 0.0 | 0.0 | 0.00 | 0.24 | 0.00 | 99 | 1008.5 |
| 20260509121204 | 74 | 315 | 0.0 | 0.0 | 0.00 | 0.24 | 0.00 | 99 | 1008.4 |
| 20260509120204 | 74 | 315 | 0.0 | 0.0 | 0.00 | 0.24 | 0.00 | 98 | 1008.1 |
| 20260509115706 | 74 | 315 | 0.0 | 0.0 | 0.00 | 0.24 | 0.00 | 99 | 1008.0 |
| 20260509115204 | 74 | 315 | 0.0 | 0.0 | 0.00 | 0.24 | 0.00 | 98 | 1008.0 |
| 20260509114704 | 74 | 315 | 0.0 | 0.0 | 0.00 | 0.24 | 0.00 | 98 | 1008.0 |
| 20260509114204 | 74 | 315 | 0.0 | 0.0 | 0.00 | 0.24 | 0.00 | 98 | 1008.4 |
| 20260509113704 | 74 | 347 | 0.0 | 0.0 | 0.00 | 0.24 | 0.00 | 98 | 1008.6 |
| 20260509113204 | 74 | 347 | 0.0 | 0.0 | 0.00 | 0.24 | 0.00 | 98 | 1008.6 |
| 20260509112704 | 74 | 347 | 0.0 | 0.0 | 0.00 | 0.24 | 0.00 | 98 | 1008.6 |
| 20260509112204 | 74 | 347 | 0.0 | 0.0 | 0.00 | 0.24 | 0.00 | 98 | 1008.5 |
| 20260509111704 | 75 | 347 | 0.0 | 0.0 | 0.00 | 0.24 | 0.00 | 98 | 1008.4 |
| 20260509111204 | 75 | 314 | 0.0 | 0.0 | 0.00 | 0.24 | 0.00 | 98 | 1008.2 |
| 20260509110705 | 75 | 337 | 0.0 | 0.0 | 0.00 | 0.24 | 0.00 | 98 | 1008.1 |
| 20260509110204 | 75 | 288 | 0.0 | 1.0 | 0.00 | 0.24 | 0.00 | 98 | 1007.9 |
| 20260509105705 | 75 | 183 | 0.0 | 1.0 | 0.00 | 0.24 | 0.00 | 98 | 1007.8 |
| 20260509105204 | 75 | 283 | 0.0 | 0.0 | 0.00 | 0.24 | 0.00 | 98 | 1007.8 |
| 20260509104704 | 75 | 283 | 0.0 | 0.0 | 0.00 | 0.24 | 0.00 | 98 | 1007.8 |
| 20260509104204 | 75 | 283 | 0.0 | 1.0 | 0.00 | 0.24 | 0.00 | 98 | 1007.7 |
| 20260509103703 | 75 | 341 | 0.0 | 0.0 | 0.00 | 0.24 | 0.00 | 98 | 1007.7 |
| 20260509103205 | 75 | 341 | 0.0 | 0.0 | 0.00 | 0.24 | 0.00 | 98 | 1007.7 |
| 20260509102703 | 75 | 341 | 0.0 | 0.0 | 0.00 | 0.24 | 0.00 | 98 | 1007.8 |
| 20260509102204 | 75 | 341 | 0.0 | 0.0 | 0.00 | 0.24 | 0.00 | 98 | 1007.7 |
| 20260509101703 | 75 | 39 | 0.0 | 1.0 | 0.00 | 0.24 | 0.00 | 98 | 1007.7 |
| 20260509101204 | 75 | 10 | 0.0 | 0.0 | 0.00 | 0.24 | 0.00 | 98 | 1007.6 |
| 20260509100704 | 75 | 10 | 0.0 | 1.0 | 0.00 | 0.24 | 0.00 | 98 | 1007.7 |
| 20260509095704 | 75 | 351 | 0.0 | 0.0 | 0.00 | 0.24 | 0.00 | 98 | 1007.7 |
| 20260509095204 | 75 | 351 | 0.0 | 0.0 | 0.00 | 0.24 | 0.00 | 98 | 1007.7 |
| 20260509094704 | 75 | 351 | 0.0 | 0.0 | 0.00 | 0.24 | 0.00 | 98 | 1007.6 |
| 20260509094204 | 75 | 351 | 0.0 | 0.0 | 0.00 | 0.24 | 0.00 | 98 | 1007.5 |
| 20260509093703 | 75 | 351 | 0.0 | 0.0 | 0.00 | 0.24 | 0.00 | 98 | 1007.5 |
| 20260509093204 | 75 | 351 | 0.0 | 0.0 | 0.00 | 0.24 | 0.00 | 98 | 1007.6 |
| 20260509092704 | 75 | 351 | 0.0 | 0.0 | 0.00 | 0.24 | 0.00 | 98 | 1007.5 |
| 20260509092203 | 75 | 351 | 0.0 | 0.0 | 0.00 | 0.24 | 0.00 | 98 | 1007.5 |
| 20260509091704 | 75 | 1 | 0.0 | 0.0 | 0.00 | 0.24 | 0.00 | 98 | 1007.6 |
| 20260509091204 | 75 | 1 | 0.0 | 0.0 | 0.00 | 0.24 | 0.00 | 97 | 1007.7 |
| 20260509090704 | 75 | 1 | 0.0 | 0.0 | 0.00 | 0.24 | 0.00 | 97 | 1007.7 |
| 20260509085704 | 75 | 1 | 0.0 | 0.0 | 0.00 | 0.24 | 0.00 | 97 | 1007.6 |
| 20260509085204 | 75 | 1 | 0.0 | 0.0 | 0.00 | 0.24 | 0.00 | 97 | 1007.5 |
| 20260509084703 | 75 | 1 | 0.0 | 0.0 | 0.00 | 0.24 | 0.00 | 97 | 1007.4 |
| 20260509084204 | 75 | 22 | 0.0 | 1.0 | 0.00 | 0.24 | 0.00 | 97 | 1007.3 |
| 20260509083704 | 75 | 93 | 0.0 | 1.0 | 0.00 | 0.24 | 0.00 | 97 | 1007.4 |
| 20260509083205 | 75 | 105 | 0.0 | 0.0 | 0.00 | 0.24 | 0.00 | 97 | 1007.4 |
| 20260509082704 | 75 | 103 | 0.0 | 0.0 | 0.00 | 0.24 | 0.00 | 97 | 1007.5 |
| 20260509082204 | 75 | 103 | 0.0 | 0.0 | 0.00 | 0.24 | 0.00 | 97 | 1007.7 |
| 20260509081704 | 75 | 103 | 0.0 | 0.0 | 0.00 | 0.24 | 0.00 | 97 | 1007.7 |
| 20260509081204 | 75 | 143 | 1.0 | 1.0 | 0.00 | 0.24 | 0.00 | 97 | 1007.6 |
| 20260509080704 | 75 | 175 | 0.0 | 0.0 | 0.00 | 0.24 | 0.00 | 97 | 1007.5 |
| 20260509080204 | 75 | 175 | 0.0 | 0.0 | 0.00 | 0.24 | 0.00 | 97 | 1007.5 |
| 20260509075706 | 75 | 175 | 0.0 | 1.0 | 0.00 | 0.24 | 0.00 | 97 | 1007.5 |
| 20260509074704 | 75 | 227 | 0.0 | 1.0 | 0.00 | 0.24 | 0.00 | 96 | 1007.6 |
| 20260509074204 | 75 | 293 | 0.0 | 0.0 | 0.00 | 0.24 | 0.00 | 96 | 1007.8 |
| 20260509073704 | 76 | 293 | 0.0 | 0.0 | 0.00 | 0.24 | 0.00 | 96 | 1008.0 |
| 20260509072205 | 76 | 175 | 0.0 | 0.0 | 0.00 | 0.24 | 0.00 | 96 | 1007.9 |
| 20260509071704 | 76 | 175 | 0.0 | 0.0 | 0.00 | 0.24 | 0.00 | 96 | 1008.1 |
| 20260509071204 | 76 | 175 | 0.0 | 0.0 | 0.00 | 0.24 | 0.00 | 96 | 1008.2 |
| 20260509070704 | 76 | 175 | 0.0 | 0.0 | 0.00 | 0.24 | 0.00 | 96 | 1008.2 |
| 20260509070203 | 76 | 175 | 0.0 | 1.0 | 0.00 | 0.24 | 0.00 | 96 | 1008.2 |
| 20260509065704 | 76 | 162 | 0.0 | 1.0 | 0.00 | 0.24 | 0.00 | 96 | 1008.2 |
| 20260509065204 | 76 | 171 | 0.0 | 0.0 | 0.00 | 0.24 | 0.00 | 96 | 1008.1 |
| 20260509064704 | 76 | 283 | 0.0 | 0.0 | 0.00 | 0.24 | 0.00 | 96 | 1008.1 |
| 20260509064204 | 76 | 283 | 0.0 | 1.0 | 0.00 | 0.24 | 0.00 | 96 | 1008.0 |
| 20260509063704 | 76 | 217 | 0.0 | 0.0 | 0.00 | 0.24 | 0.00 | 96 | 1008.0 |
| 20260509063204 | 76 | 217 | 0.0 | 1.0 | 0.00 | 0.24 | 0.00 | 96 | 1008.0 |
| 20260509062704 | 76 | 213 | 0.0 | 0.0 | 0.00 | 0.24 | 0.00 | 96 | 1008.0 |
| 20260509061703 | 76 | 213 | 0.0 | 0.0 | 0.00 | 0.24 | 0.00 | 96 | 1008.1 |
| 20260509061204 | 76 | 213 | 0.0 | 0.0 | 0.00 | 0.24 | 0.00 | 96 | 1008.2 |
| 20260509060704 | 76 | 213 | 0.0 | 0.0 | 0.00 | 0.24 | 0.00 | 96 | 1008.2 |
| 20260509060204 | 76 | 213 | 0.0 | 1.0 | 0.00 | 0.24 | 0.00 | 96 | 1008.2 |
| 20260509055704 | 76 | 224 | 0.0 | 1.0 | 0.11 | 0.24 | 0.00 | 96 | 1008.2 |
| 20260509055204 | 76 | 238 | 0.0 | 0.0 | 0.11 | 0.24 | 0.00 | 96 | 1008.3 |